Weather History for KLOM - March, 2013

Change the Weather History Date:

Friday, March 22, 2013

  Actual Average (KPNE) Record (KPNE)
Temperature  
Mean Temperature 36 °F -  
Max Temperature 42 °F 51 °F 73 °F (2012)
Min Temperature 30 °F 33 °F 21 °F (2002)
Degree Days  
Heating Degree Days 29    
Moisture  
Dew Point 20 °F    
Average Humidity 56    
Maximum Humidity 69    
Minimum Humidity 42    
Precipitation  
Precipitation 0.00 in - - ()
Sea Level Pressure  
Sea Level Pressure 29.84 in    
Wind  
Wind Speed 8 mph (West)    
Max Wind Speed 16 mph    
Max Gust Speed 30 mph    
Visibility 10 miles    
Events      
Averages and records for this station are not official NWS values.
T = Trace of Precipitation, MM = Missing Value Source: NWS Daily Summary

Daily Weather History Graph

Daily Weather History Graph

Search for Another Location

Airport or City:

Trip Planner

Search our weather history database for the weather conditions in past years. The results will help you decide how hot, cold, wet, or windy it might be!

Date:

Astronomy

Mar. 22, 2013 Rise Set
Actual Time 7:00 AM EDT 7:15 PM EDT
Civil Twilight 6:33 AM EDT 7:42 PM EDT
Nautical Twilight 6:02 AM EDT 8:14 PM EDT
Astronomical Twilight 5:29 AM EDT 8:46 PM EDT
Moon 2:40 PM EDT (3/22) 4:00 AM EDT (3/22)
Length of Visible Light 13h 08m
Length of Day
12h 14m
Waxing Gibbous, 77% of the Moon is Illuminated
Mar 22
Waxing Gibbous
Mar 27
Full
Apr 3
Last Quarter
Apr 10
New
Apr 18
First Quarter

Hourly Weather History & Observations

Time (EDT) Temp. Windchill Dew Point Humidity Pressure Visibility Wind Dir Wind Speed Gust Speed Precip Events Conditions
12:15 AM 30.2 °F 24.3 °F 14.0 °F 51% 29.79 in 10.0 mi West 5.8 mph - N/A   Clear
12:35 AM 30.2 °F 24.3 °F 14.0 °F 51% 29.79 in 10.0 mi WSW 5.8 mph - N/A   Clear
12:55 AM 30.2 °F 22.6 °F 15.8 °F 55% 29.79 in 10.0 mi West 8.1 mph - N/A   Clear
1:15 AM 30.2 °F 23.4 °F 15.8 °F 55% 29.78 in 10.0 mi West 6.9 mph - N/A   Clear
1:35 AM 30.2 °F 25.4 °F 17.6 °F 60% 29.79 in 10.0 mi West 4.6 mph - N/A   Clear
1:55 AM 30.2 °F 24.3 °F 17.6 °F 60% 29.79 in 10.0 mi West 5.8 mph - N/A   Clear
2:15 AM 30.2 °F 23.4 °F 17.6 °F 60% 29.78 in 10.0 mi West 6.9 mph - N/A   Clear
2:35 AM 30.2 °F 25.4 °F 17.6 °F 60% 29.78 in 10.0 mi West 4.6 mph - N/A   Clear
2:55 AM 30.2 °F 23.4 °F 17.6 °F 60% 29.78 in 10.0 mi West 6.9 mph - N/A   Clear
3:15 AM 30.2 °F 25.4 °F 17.6 °F 60% 29.78 in 10.0 mi West 4.6 mph - N/A   Clear
3:35 AM 30.2 °F 24.3 °F 17.6 °F 60% 29.78 in 10.0 mi West 5.8 mph - N/A   Clear
3:55 AM 30.2 °F 24.3 °F 19.4 °F 64% 29.77 in 10.0 mi West 5.8 mph - N/A   Clear
4:15 AM 30.2 °F 22.6 °F 19.4 °F 64% 29.77 in 10.0 mi West 8.1 mph 18.4 mph N/A   Clear
4:35 AM 30.2 °F 23.4 °F 19.4 °F 64% 29.77 in 10.0 mi West 6.9 mph 16.1 mph N/A   Clear
4:55 AM 30.2 °F 22.6 °F 19.4 °F 64% 29.77 in 10.0 mi West 8.1 mph - N/A   Clear
5:15 AM 30.2 °F 20.8 °F 19.4 °F 64% 29.77 in 10.0 mi West 11.5 mph 17.3 mph N/A   Clear
5:35 AM 30.2 °F 23.4 °F 19.4 °F 64% 29.78 in 10.0 mi West 6.9 mph - N/A   Clear
5:55 AM 30.2 °F 22.6 °F 19.4 °F 64% 29.79 in 10.0 mi West 8.1 mph - N/A   Clear
6:15 AM 30.2 °F 23.4 °F 19.4 °F 64% 29.79 in 10.0 mi WSW 6.9 mph - N/A   Clear
6:35 AM 30.2 °F 24.3 °F 19.4 °F 64% 29.80 in 10.0 mi WSW 5.8 mph - N/A   Clear
6:55 AM 30.2 °F 24.3 °F 19.4 °F 64% 29.81 in 10.0 mi West 5.8 mph - N/A   Clear
7:15 AM 30.2 °F 25.4 °F 21.2 °F 69% 29.81 in 10.0 mi West 4.6 mph - N/A   Clear
7:35 AM 30.2 °F 24.3 °F 21.2 °F 69% 29.82 in 10.0 mi West 5.8 mph - N/A   Clear
7:55 AM 32.0 °F 26.4 °F 21.2 °F 64% 29.83 in 10.0 mi West 5.8 mph - N/A   Clear
8:15 AM 32.0 °F 24.8 °F 21.2 °F 64% 29.83 in 10.0 mi West 8.1 mph - N/A   Clear
8:35 AM 32.0 °F 25.6 °F 23.0 °F 69% 29.84 in 10.0 mi West 6.9 mph - N/A   Clear
8:55 AM 33.8 °F 26.4 °F 23.0 °F 65% 29.84 in 10.0 mi West 9.2 mph 17.3 mph N/A   Clear
9:15 AM 33.8 °F 27.0 °F 23.0 °F 65% 29.84 in 10.0 mi West 8.1 mph 17.3 mph N/A   Clear
9:35 AM 33.8 °F 25.3 °F 23.0 °F 65% 29.85 in 10.0 mi West 11.5 mph 17.3 mph N/A   Scattered Clouds
9:55 AM 33.8 °F 23.9 °F 21.2 °F 60% 29.85 in 10.0 mi West 15.0 mph 21.9 mph N/A   Overcast
10:15 AM 35.6 °F 26.2 °F 21.2 °F 56% 29.85 in 10.0 mi WNW 15.0 mph 20.7 mph N/A   Mostly Cloudy
10:35 AM 35.6 °F 27.5 °F 21.2 °F 56% 29.85 in 10.0 mi West 11.5 mph 21.9 mph N/A   Mostly Cloudy
10:55 AM 35.6 °F 27.1 °F 21.2 °F 56% 29.85 in 10.0 mi West 12.7 mph 16.1 mph N/A   Mostly Cloudy
11:15 AM 37.4 °F 28.9 °F 21.2 °F 52% 29.84 in 10.0 mi West 13.8 mph 25.3 mph N/A   Scattered Clouds
11:35 AM 37.4 °F 28.2 °F 21.2 °F 52% 29.84 in 10.0 mi WNW 16.1 mph 29.9 mph N/A   Clear
11:55 AM 37.4 °F 29.8 °F 19.4 °F 48% 29.84 in 10.0 mi WNW 11.5 mph 20.7 mph N/A   Scattered Clouds
12:15 PM 39.2 °F 30.8 °F 21.2 °F 49% 29.84 in 10.0 mi WNW 15.0 mph 20.7 mph N/A   Scattered Clouds
12:35 PM 37.4 °F 29.8 °F 21.2 °F 52% 29.83 in 10.0 mi WNW 11.5 mph 21.9 mph N/A   Scattered Clouds
12:55 PM 39.2 °F 31.6 °F 21.2 °F 49% 29.83 in 10.0 mi NW 12.7 mph 21.9 mph N/A   Mostly Cloudy
1:15 PM 39.2 °F 32.0 °F 21.2 °F 49% 29.83 in 10.0 mi West 11.5 mph 19.6 mph N/A   Mostly Cloudy
1:35 PM 39.2 °F 31.6 °F 23.0 °F 52% 29.83 in 10.0 mi West 12.7 mph 18.4 mph N/A   Mostly Cloudy
1:55 PM 37.4 °F 30.8 °F 23.0 °F 56% 29.83 in 10.0 mi West 9.2 mph 18.4 mph N/A   Mostly Cloudy
2:15 PM 42.8 °F 37.0 °F 21.2 °F 42% 29.82 in 10.0 mi WSW 10.4 mph 18.4 mph N/A   Scattered Clouds
2:35 PM 41.0 °F 34.3 °F 19.4 °F 42% 29.82 in 10.0 mi West 11.5 mph 16.1 mph N/A   Scattered Clouds
2:55 PM 41.0 °F 36.4 °F 21.2 °F 45% 29.82 in 10.0 mi West 6.9 mph 23.0 mph N/A   Scattered Clouds
3:15 PM 41.0 °F 33.9 °F 21.2 °F 45% 29.82 in 10.0 mi West 12.7 mph 18.4 mph N/A   Mostly Cloudy
3:35 PM 41.0 °F 34.3 °F 21.2 °F 45% 29.82 in 10.0 mi West 11.5 mph 18.4 mph N/A   Mostly Cloudy
3:55 PM 41.0 °F 35.8 °F 21.2 °F 45% 29.82 in 10.0 mi West 8.1 mph 20.7 mph N/A   Mostly Cloudy
4:15 PM 41.0 °F 34.7 °F 21.2 °F 45% 29.82 in 10.0 mi WNW 10.4 mph 18.4 mph N/A   Mostly Cloudy
4:35 PM 41.0 °F 35.2 °F 21.2 °F 45% 29.83 in 10.0 mi West 9.2 mph 19.6 mph N/A   Overcast
4:55 PM 41.0 °F 34.3 °F 21.2 °F 45% 29.83 in 10.0 mi WNW 11.5 mph 17.3 mph N/A   Overcast
5:15 PM 41.0 °F 33.9 °F 21.2 °F 45% 29.84 in 10.0 mi WNW 12.7 mph 18.4 mph N/A   Overcast
5:35 PM 41.0 °F 33.9 °F 21.2 °F 45% 29.84 in 10.0 mi WNW 12.7 mph 20.7 mph N/A   Overcast
5:55 PM 41.0 °F 35.2 °F 19.4 °F 42% 29.85 in 10.0 mi WNW 9.2 mph 20.7 mph N/A   Overcast
6:15 PM 41.0 °F 33.5 °F 21.2 °F 45% 29.85 in 10.0 mi West 13.8 mph 19.6 mph N/A   Mostly Cloudy
6:35 PM 39.2 °F 32.0 °F 21.2 °F 49% 29.87 in 10.0 mi WNW 11.5 mph 19.6 mph N/A   Mostly Cloudy
6:55 PM 37.4 °F 28.9 °F 21.2 °F 52% 29.88 in 10.0 mi West 13.8 mph 20.7 mph N/A   Mostly Cloudy
7:15 PM 37.4 °F 30.3 °F 21.2 °F 52% 29.89 in 10.0 mi West 10.4 mph - N/A   Mostly Cloudy
7:35 PM 37.4 °F 30.3 °F 21.2 °F 52% 29.89 in 10.0 mi West 10.4 mph 16.1 mph N/A   Scattered Clouds
7:55 PM 35.6 °F 30.7 °F 21.2 °F 56% 29.90 in 10.0 mi West 5.8 mph 19.6 mph N/A   Clear
8:15 PM 35.6 °F 28.6 °F 21.2 °F 56% 29.90 in 10.0 mi WNW 9.2 mph 17.3 mph N/A   Clear
8:35 PM 35.6 °F 29.9 °F 21.2 °F 56% 29.90 in 10.0 mi West 6.9 mph 16.1 mph N/A   Clear
8:55 PM 35.6 °F 31.7 °F 21.2 °F 56% 29.90 in 10.0 mi WNW 4.6 mph - N/A   Clear
9:15 PM 35.6 °F 29.9 °F 21.2 °F 56% 29.92 in 10.0 mi West 6.9 mph - N/A   Clear
9:35 PM 35.6 °F 28.0 °F 21.2 °F 56% 29.92 in 10.0 mi WNW 10.4 mph - N/A   Clear
9:55 PM 35.6 °F 29.2 °F 21.2 °F 56% 29.92 in 10.0 mi WNW 8.1 mph - N/A   Clear
10:15 PM 35.6 °F 30.7 °F 21.2 °F 56% 29.92 in 10.0 mi WNW 5.8 mph - N/A   Clear
10:35 PM 33.8 °F 27.7 °F 21.2 °F 60% 29.92 in 10.0 mi WNW 6.9 mph - N/A   Clear
10:55 PM 33.8 °F 27.0 °F 21.2 °F 60% 29.92 in 10.0 mi WNW 8.1 mph - N/A   Clear
11:15 PM 33.8 °F 28.6 °F 21.2 °F 60% 29.92 in 10.0 mi West 5.8 mph - N/A   Clear
11:35 PM 33.8 °F 27.0 °F 21.2 °F 60% 29.93 in 10.0 mi West 8.1 mph - N/A   Clear
11:55 PM 33.8 °F 26.4 °F 21.2 °F 60% 29.93 in 10.0 mi West 9.2 mph 19.6 mph N/A   Clear